Stornoway, United Kingdom

2:53 AM BST on August 17, 2018 (GMT +0100)
Stornoway

Weather History for EGPO - August, 2018

Change the Weather History Date:

Friday, August 10, 2018

  Actual Average Record
Temperature  
Mean Temperature 52 °F -  
Max Temperature 61 °F 59 °F 73 °F (2004)
Min Temperature 43 °F 49 °F 39 °F (2016)
Degree Days  
Heating Degree Days 13    
Growing Degree Days 2 (Base 50)    
Moisture  
Dew Point 47 °F    
Average Humidity 83    
Maximum Humidity 100    
Minimum Humidity 51    
Precipitation  
Precipitation 0.00 in 0.12 in - ()
Sea Level Pressure  
Sea Level Pressure 29.92 in    
Wind  
Wind Speed 3 mph ()    
Max Wind Speed 13 mph    
Max Gust Speed -    
Visibility 6.3 miles    
Events Rain    
Averages and records for this station are not official NWS values.
T = Trace of Precipitation, MM = Missing Value Source: Averaged Metar Reports

Daily Weather History Graph

Daily Weather History Graph

Search for Another Location

Airport or City:

Astronomy

Aug. 10, 2018 Rise Set
Actual Time 5:36 AM BST 9:23 PM BST
Civil Twilight 4:46 AM BST 10:12 PM BST
Nautical Twilight 3:33 AM BST 11:24 PM BST
Astronomical Twilight 2:03 AM BST 12:58 AM BST
Moon 3:55 AM BST (8/10) 9:04 PM BST (8/10)
Length of Visible Light 17h 26m
Length of Day
15h 47m
Waning Crescent, 1% of the Moon is Illuminated
Aug 10
Waning Crescent
Aug 11
New
Aug 18
First Quarter
Aug 26
Full
Sep 3
Last Quarter

Hourly Weather History & Observations

Time (BST) Temp. Windchill Dew Point Humidity Pressure Visibility Wind Dir Wind Speed Gust Speed Precip Events Conditions
12:00 AM 48 °F - 46 °F 91% 29.84 in 25 mi NNE 2.3 mph - -   Scattered Clouds
12:20 AM 46.4 °F - 44.6 °F 93% 29.83 in 6.2 mi Calm Calm - N/A   Unknown
12:50 AM 44.6 °F - 42.8 °F 93% 29.83 in 6.2 mi Variable 1.2 mph - N/A   Unknown
1:00 AM 48 °F - 46 °F 89% 29.85 in 31 mi SSW 3.5 mph - -   Scattered Clouds
1:20 AM 44.6 °F - 42.8 °F 93% 29.83 in 6.2 mi Calm Calm - N/A   Unknown
1:50 AM 42.8 °F - 41.0 °F 93% 29.86 in 6.2 mi Variable 1.2 mph - N/A   Unknown
2:00 AM 47 °F - 45 °F 88% 29.85 in 31 mi WSW 2.3 mph - -   Scattered Clouds
2:20 AM 44.6 °F - 42.8 °F 93% 29.86 in 6.2 mi NNE 1.2 mph - N/A   Unknown
2:50 AM 42.8 °F - 41.0 °F 93% 29.86 in 6.2 mi Variable 1.2 mph - N/A   Unknown
3:00 AM 46 °F - 45 °F 95% 29.85 in 31 mi North 1.2 mph - -   Scattered Clouds
3:20 AM 42.8 °F - 42.8 °F 100% 29.86 in 6.2 mi NW 2.3 mph - N/A   Unknown
3:50 AM 42.8 °F - 42.8 °F 100% 29.83 in 6.2 mi NW 1.2 mph - N/A   Unknown
4:20 AM 42.8 °F 41.1 °F 41.0 °F 93% 29.83 in 6.2 mi WNW 3.5 mph - N/A   Unknown
4:50 AM 42.8 °F 41.1 °F 41.0 °F 93% 29.83 in 6.2 mi WNW 3.5 mph - N/A   Unknown
5:00 AM 44 °F - 43 °F 94% 29.85 in 31 mi WNW 4.6 mph - -   Scattered Clouds
5:20 AM 42.8 °F - 42.8 °F 100% 29.83 in 6.2 mi WNW 2.3 mph - N/A   Partly Cloudy
5:50 AM 42.8 °F - 42.8 °F 100% 29.83 in 6.2 mi WNW 2.3 mph - N/A   Partly Cloudy
6:00 AM 44 °F - 43 °F 96% 29.85 in 28 mi WNW 1.2 mph - -   Scattered Clouds
6:20 AM 42.8 °F - 42.8 °F 100% 29.86 in 6.2 mi Calm Calm - N/A   Partly Cloudy
6:50 AM 44.6 °F - 42.8 °F 93% 29.86 in 6.2 mi Calm Calm - N/A   Partly Cloudy
7:00 AM 46 °F - 46 °F 97% 29.86 in 22 mi West 2.3 mph - -  
7:20 AM 48.2 °F - 46.4 °F 93% 29.86 in 6.2 mi West 1.2 mph - N/A   Partly Cloudy
7:50 AM 50.0 °F - 48.2 °F 94% 29.86 in 6.2 mi West 1.2 mph - N/A   Scattered Clouds
8:00 AM 49 °F - 48 °F 96% 29.87 in 31 mi West 2.3 mph - -   Overcast
8:20 AM 50.0 °F - 50.0 °F 100% 29.86 in 6.2 mi WNW 1.2 mph - N/A   Mostly Cloudy
8:50 AM 51.8 °F - 51.8 °F 100% 29.89 in 6.2 mi NW 1.2 mph - N/A   Mostly Cloudy
9:00 AM 53 °F - 51 °F 90% 29.89 in 11 mi NW 4.6 mph - -   Overcast
9:20 AM 53.6 °F - 51.8 °F 94% 29.89 in 6.2 mi NW 1.2 mph - N/A   Mostly Cloudy
9:50 AM 55.4 °F - 50.0 °F 82% 29.89 in 6.2 mi NNW 3.5 mph - N/A   Mostly Cloudy
10:00 AM 56 °F - 50 °F 75% 29.90 in 28 mi NNW 4.6 mph - -   Mostly Cloudy
10:20 AM 57.2 °F - 50.0 °F 77% 29.89 in 6.2 mi Variable 2.3 mph - N/A   Mostly Cloudy
10:50 AM 57.2 °F - 50.0 °F 77% 29.89 in 6.2 mi Variable 2.3 mph - N/A   Mostly Cloudy
11:00 AM 57 °F - 49 °F 68% 29.91 in 28 mi NNE 3.5 mph - -   Overcast
11:20 AM 57.2 °F - 48.2 °F 72% 29.92 in 6.2 mi Variable 1.2 mph - N/A   Mostly Cloudy
11:50 AM 55.4 °F - 51.8 °F 88% 29.92 in 6.2 mi WSW 4.6 mph - N/A Rain Light Rain Showers
12:20 PM 57.2 °F - 50.0 °F 77% 29.92 in 6.2 mi WSW 6.9 mph - N/A   Scattered Clouds
12:50 PM 57.2 °F - 50.0 °F 77% 29.92 in 6.2 mi SW 4.6 mph - N/A   Scattered Clouds
1:00 PM 56 °F - 48 °F 67% 29.93 in 28 mi SW 5.8 mph - - Rain Rain
1:20 PM 57.2 °F - 48.2 °F 72% 29.92 in 6.2 mi Variable 3.5 mph - N/A   Scattered Clouds
1:50 PM 55.4 °F - 51.8 °F 88% 29.95 in 6.2 mi WSW 3.5 mph - N/A   Scattered Clouds
2:20 PM 55.4 °F - 50.0 °F 82% 29.95 in 6.2 mi SSW 6.9 mph - N/A   Scattered Clouds
2:50 PM 55.4 °F - 51.8 °F 88% 29.95 in 6.2 mi SSW 4.6 mph - N/A   Scattered Clouds
3:20 PM 57.2 °F - 50.0 °F 77% 29.95 in 6.2 mi NW 5.8 mph - N/A   Mostly Cloudy
3:50 PM 59.0 °F - 50.0 °F 72% 29.95 in 6.2 mi NW 10.4 mph - N/A   Mostly Cloudy
4:20 PM 59.0 °F - 50.0 °F 72% 29.98 in 6.2 mi NNW 9.2 mph - N/A   Mostly Cloudy
4:50 PM 60.8 °F - 48.2 °F 63% 29.98 in 6.2 mi NW 9.2 mph - N/A   Mostly Cloudy
5:00 PM 60 °F - 47 °F 52% 29.98 in 28 mi NW 12.7 mph - -   Scattered Clouds
5:20 PM 60.8 °F - 48.2 °F 63% 29.98 in 6.2 mi NNW 8.1 mph - N/A   Scattered Clouds
5:50 PM 60.8 °F - 48.2 °F 63% 29.98 in 6.2 mi NW 9.2 mph - N/A   Scattered Clouds
6:00 PM 59 °F - 46 °F 51% 29.99 in 22 mi NW 12.7 mph - -   Scattered Clouds
6:20 PM 59.0 °F - 48.2 °F 67% 29.98 in 6.2 mi NW 8.1 mph - N/A   Scattered Clouds
6:50 PM 59.0 °F - 48.2 °F 67% 30.01 in 6.2 mi WNW 8.1 mph - N/A   Scattered Clouds
7:00 PM 58 °F - 47 °F 58% 30.00 in 28 mi NW 11.5 mph - -   Scattered Clouds
7:20 PM 57.2 °F - 48.2 °F 72% 30.01 in 6.2 mi NNW 6.9 mph - N/A   Partly Cloudy
7:50 PM 57.2 °F - 48.2 °F 72% 30.01 in 6.2 mi NNW 4.6 mph - N/A   Partly Cloudy
8:00 PM 57 °F - 48 °F 62% 30.01 in 28 mi NW 8.1 mph - -   Mostly Cloudy
8:20 PM 57.2 °F - 48.2 °F 72% 30.01 in 6.2 mi NW 5.8 mph - N/A   Unknown
8:50 PM 55.4 °F - 48.2 °F 77% 30.01 in 6.2 mi WNW 4.6 mph - N/A   Unknown
9:00 PM 56 °F - 48 °F 66% 30.02 in 28 mi WNW 6.9 mph - -   Overcast
9:20 PM 53.6 °F - 48.2 °F 82% 30.04 in 6.2 mi WNW 1.2 mph - N/A   Overcast
9:50 PM 53.6 °F - 48.2 °F 82% 30.04 in 6.2 mi West 1.2 mph - N/A   Mostly Cloudy
10:00 PM 54 °F - 47 °F 72% 30.04 in 31 mi West 2.3 mph - -   Overcast
10:20 PM 51.8 °F - 48.2 °F 88% 30.04 in 6.2 mi West 1.2 mph - N/A   Overcast
10:50 PM 50.0 °F - 46.4 °F 87% 30.04 in 6.2 mi West 2.3 mph - N/A   Mostly Cloudy
11:00 PM 52 °F - 47 °F 79% 30.05 in 31 mi West 3.5 mph - -   Mostly Cloudy
11:20 PM 46.4 °F 45.2 °F 44.6 °F 93% 30.04 in 6.2 mi WNW 3.5 mph - N/A   Unknown
11:50 PM 48.2 °F - 46.4 °F 93% 30.04 in 6.2 mi Calm Calm - N/A   Unknown